Date String (YYYY-MM-DD hh:mm:ss) UTC,Instrument flags,Ambient pressure (hPa),Sample flow (lpm),Bypass flow (lpm),Sample temperature (°C),Ambient temperature (°C),ASC tube jacket temperature (°C),LED temperature (°C),Box temperature (°C),Sample RH (%),Span deviation,Mass concentration (μg/m³),Mass concentration (μg/m³),Mass concentration (μg/m³)
DateTimeUTC,F1_M11,P_M11,Q1_M11,Q2_M11,T1_M11,T2_M11,T3_M11,T4_M11,T5_M11,U1_M11,ZSPAN_M11,X2_M11,X0_M11,X1_M11
2022-10-29 14:00:00,,0830.9,5.00,0.00,22.9,21.3,00.0,31.8,24.7,08.1,0000.0,0001.69,0003.20,0001.53
2022-10-29 14:01:00,,0830.9,4.98,0.00,22.9,21.3,00.0,31.8,24.7,08.1,0000.0,0001.66,0003.12,0001.51
2022-10-29 14:02:00,,0830.9,5.01,0.00,22.9,21.3,00.0,31.8,24.8,08.1,0000.0,0001.62,0003.03,0001.48
2022-10-29 14:03:00,,0830.9,5.01,0.00,22.9,21.3,00.0,31.8,24.7,08.1,0000.0,0001.60,0003.01,0001.47
2022-10-29 14:04:00,,0830.9,4.99,0.00,22.9,21.4,00.0,31.8,24.8,08.2,0000.0,0001.59,0002.97,0001.46
2022-10-29 14:05:00,,0830.9,5.01,0.00,22.9,21.4,00.0,31.8,24.8,08.4,0000.0,0001.58,0002.71,0001.46
2022-10-29 14:06:00,,0830.9,5.01,0.00,22.9,21.4,00.0,31.8,24.8,08.4,0000.0,0001.60,0001.88,0001.46
2022-10-29 14:07:00,,0830.9,4.98,0.00,22.9,21.4,00.0,31.8,24.8,08.3,0000.0,0001.60,0001.90,0001.47
2022-10-29 14:08:00,,0830.9,5.01,0.00,22.9,21.4,00.0,31.8,24.8,08.2,0000.0,0001.61,0001.92,0001.48
2022-10-29 14:09:00,,0830.9,5.01,0.00,22.9,21.4,00.0,31.8,24.8,08.3,0000.0,0001.65,0002.08,0001.50
2022-10-29 14:10:00,,0830.9,4.99,0.00,22.9,21.4,00.0,31.8,24.8,08.4,0000.0,0001.67,0002.10,0001.52
2022-10-29 14:11:00,,0830.9,5.01,0.00,22.9,21.4,00.0,31.8,24.8,08.8,0000.0,0001.68,0002.42,0001.56
2022-10-29 14:12:00,,0830.9,5.01,0.00,22.9,21.4,00.0,31.8,24.8,09.0,0000.0,0001.78,0003.12,0001.64
2022-10-29 14:13:00,,0830.9,4.98,0.00,22.9,21.4,00.0,31.8,24.8,09.1,0000.0,0001.91,0003.38,0001.75
2022-10-29 14:14:00,,0830.9,5.01,0.00,22.9,21.5,00.0,31.8,24.8,09.3,0000.0,0002.04,0003.59,0001.86
2022-10-29 14:15:00,,0830.9,5.01,0.00,22.9,21.5,00.0,31.8,24.8,09.4,0000.0,0002.16,0003.75,0001.97
2022-10-29 14:16:00,,0830.9,4.98,0.00,22.9,21.5,00.0,31.8,24.8,09.3,0000.0,0002.31,0004.12,0002.07
2022-10-29 14:17:00,,0830.9,5.01,0.00,22.9,21.5,00.0,31.8,24.8,09.2,0000.0,0002.44,0004.26,0002.18
2022-10-29 14:18:00,,0830.9,5.00,0.00,22.9,21.5,00.0,31.8,24.8,09.2,0000.0,0002.57,0004.44,0002.29
2022-10-29 14:19:00,,0830.9,5.01,0.00,23.0,21.5,00.0,31.8,24.8,09.1,0000.0,0002.64,0004.54,0002.35
2022-10-29 14:20:00,,0830.9,4.98,0.00,23.0,21.5,00.0,31.8,24.8,08.7,0000.0,0002.69,0004.55,0002.37
2022-10-29 14:21:00,,0830.9,5.01,0.00,23.0,21.5,00.0,31.8,24.8,08.6,0000.0,0002.68,0004.81,0002.35
2022-10-29 14:22:00,,0830.9,5.01,0.00,23.0,21.5,00.0,31.8,24.8,08.4,0000.0,0002.64,0004.75,0002.29
2022-10-29 14:23:00,,0830.9,4.99,0.00,23.0,21.5,00.0,31.8,24.8,08.4,0000.0,0002.54,0004.09,0002.19
2022-10-29 14:24:00,,0830.9,5.01,0.00,22.9,21.5,00.0,31.8,24.8,08.7,0000.0,0002.42,0003.85,0002.07
2022-10-29 14:25:00,,0830.9,5.00,0.00,23.0,21.5,00.0,31.8,24.8,08.5,0000.0,0002.32,0003.71,0001.97
2022-10-29 14:26:00,,0830.9,4.98,0.00,23.0,21.5,00.0,31.8,24.8,08.4,0000.0,0002.22,0003.58,0001.88
2022-10-29 14:27:00,,0830.9,5.01,0.00,23.0,21.5,00.0,31.8,24.8,08.6,0000.0,0002.06,0003.20,0001.79
2022-10-29 14:28:00,,0830.9,5.01,0.00,23.0,21.5,00.0,31.8,24.8,08.9,0000.0,0001.91,0002.99,0001.67
2022-10-29 14:29:00,,0830.9,4.98,0.00,23.0,21.5,00.0,31.8,24.8,09.2,0000.0,0001.74,0002.74,0001.54
2022-10-29 14:30:00,,0831.0,5.01,0.00,23.0,21.5,00.0,31.8,24.8,09.0,0000.0,0001.65,0002.63,0001.46
2022-10-29 14:31:00,,0831.0,5.01,0.00,23.0,21.6,00.0,31.8,24.9,09.0,0000.0,0001.63,0002.59,0001.46
2022-10-29 14:32:00,,0831.0,4.98,0.00,23.0,21.6,00.0,31.8,24.9,09.1,0000.0,0001.66,0002.30,0001.49
2022-10-29 14:33:00,,0831.0,5.00,0.00,23.0,21.6,00.0,31.8,24.9,09.3,0000.0,0001.71,0002.10,0001.53
2022-10-29 14:34:00,,0831.0,5.01,0.00,23.0,21.6,00.0,31.8,24.9,09.5,0000.0,0001.77,0002.22,0001.59
2022-10-29 14:35:00,,0831.0,5.01,0.00,23.0,21.6,00.0,31.8,24.9,09.5,0000.0,0001.84,0002.28,0001.66
2022-10-29 14:36:00,,0831.0,4.99,0.00,23.0,21.6,00.0,31.8,24.9,09.3,0000.0,0001.90,0002.38,0001.73
2022-10-29 14:37:00,,0831.1,5.01,0.00,23.0,21.6,00.0,31.8,25.0,09.3,0000.0,0001.99,0002.54,0001.79
2022-10-29 14:38:00,,0831.0,5.00,0.00,23.0,21.6,00.0,31.8,24.9,09.6,0000.0,0002.11,0002.71,0001.89
2022-10-29 14:39:00,,0831.0,5.01,0.00,23.0,21.6,00.0,31.8,24.9,09.8,0000.0,0002.30,0002.98,0002.03
2022-10-29 14:40:00,,0831.0,4.98,0.00,23.0,21.6,00.0,31.8,24.9,10.0,0000.0,0002.55,0003.86,0002.25
2022-10-29 14:41:00,,0831.0,5.01,0.00,23.0,21.6,00.0,31.8,25.0,10.1,0000.0,0002.83,0004.23,0002.52
2022-10-29 14:42:00,,0831.1,5.01,0.00,23.0,21.6,00.0,31.8,24.9,10.1,0000.0,0003.00,0004.33,0002.72
2022-10-29 14:43:00,,0831.1,4.99,0.00,23.0,21.7,00.0,31.8,25.0,10.1,0000.0,0003.15,0004.50,0002.92
2022-10-29 14:44:00,,0831.1,5.01,0.00,23.0,21.7,00.0,31.8,25.0,10.2,0000.0,0003.25,0004.69,0003.09
2022-10-29 14:45:00,,0831.2,5.02,0.00,23.0,21.7,00.0,31.8,25.0,10.3,0000.0,0003.37,0004.93,0003.20
2022-10-29 14:46:00,,0831.2,4.99,0.00,23.1,21.7,00.0,31.9,25.0,10.3,0000.0,0003.47,0005.18,0003.28
2022-10-29 14:47:00,,0831.2,5.01,0.00,23.1,21.7,00.0,31.8,25.0,10.3,0000.0,0003.57,0005.28,0003.37
2022-10-29 14:48:00,,0831.2,5.00,0.00,23.0,21.7,00.0,31.8,25.0,10.4,0000.0,0003.70,0005.49,0003.50
2022-10-29 14:49:00,,0831.2,5.00,0.00,23.1,21.7,00.0,31.8,25.0,10.3,0000.0,0003.86,0005.81,0003.65
2022-10-29 14:50:00,,0831.2,5.00,0.00,23.1,21.7,00.0,31.9,25.0,10.5,0000.0,0003.96,0006.12,0003.75
2022-10-29 14:51:00,,0831.2,5.01,0.00,23.1,21.7,00.0,31.9,25.0,10.5,0000.0,0004.07,0006.86,0003.85
2022-10-29 14:52:00,,0831.2,4.99,0.00,23.1,21.7,00.0,31.9,25.0,10.4,0000.0,0004.17,0007.59,0003.93
2022-10-29 14:53:00,,0831.2,5.01,0.00,23.1,21.8,00.0,31.9,25.0,10.5,0000.0,0004.30,0007.83,0004.02
2022-10-29 14:54:00,,0831.2,4.99,0.00,23.1,21.8,00.0,31.9,25.0,10.5,0000.0,0004.42,0008.06,0004.10
2022-10-29 14:55:00,,0831.2,5.01,0.00,23.1,21.8,00.0,31.9,25.0,10.6,0000.0,0004.54,0008.20,0004.22
2022-10-29 14:56:00,,0831.2,5.02,0.00,23.1,21.8,00.0,31.9,25.0,10.7,0000.0,0004.63,0008.24,0004.33
2022-10-29 14:57:00,,0831.2,4.99,0.00,23.1,21.8,00.0,31.9,25.0,10.5,0000.0,0004.78,0008.70,0004.48
2022-10-29 14:58:00,,0831.2,5.01,0.00,23.1,21.8,00.0,31.9,25.0,10.6,0000.0,0004.92,0009.05,0004.60
2022-10-29 14:59:00,,0831.2,4.98,0.00,23.1,21.8,00.0,31.9,25.0,10.6,0000.0,0005.02,0009.88,0004.70
